Year,Month,Day,Hour,Minute,Value (Times are PST for temperature in C)
2018,08,08,00,00,18.30
2018,08,08,00,01,18.30
2018,08,08,00,02,18.30
2018,08,08,00,03,18.30
2018,08,08,00,04,18.30
2018,08,08,00,05,18.30
2018,08,08,00,06,18.30
2018,08,08,00,07,18.30
2018,08,08,00,08,18.30
2018,08,08,00,09,18.30
2018,08,08,00,10,18.30
2018,08,08,00,11,18.30
2018,08,08,00,12,18.30
2018,08,08,00,13,18.30
2018,08,08,00,14,18.30
2018,08,08,00,15,18.20
2018,08,08,00,16,18.20
2018,08,08,00,17,18.20
2018,08,08,00,18,18.20
2018,08,08,00,19,18.20
2018,08,08,00,20,18.20
2018,08,08,00,21,18.20
2018,08,08,00,22,18.20
2018,08,08,00,23,18.20
2018,08,08,00,24,18.20
2018,08,08,00,25,18.20
2018,08,08,00,26,18.10
2018,08,08,00,27,18.10
2018,08,08,00,28,18.10
2018,08,08,00,29,18.10
2018,08,08,00,30,18.10
2018,08,08,00,31,18.10
2018,08,08,00,32,18.10
2018,08,08,00,33,18.10
2018,08,08,00,34,18.10
2018,08,08,00,35,18.10
2018,08,08,00,36,18.10
2018,08,08,00,37,18.10
2018,08,08,00,38,18.10
2018,08,08,00,39,18.10
2018,08,08,00,40,18.10
2018,08,08,00,41,18.10
2018,08,08,00,42,18.10
2018,08,08,00,43,18.10
2018,08,08,00,44,18.10
2018,08,08,00,45,18.10
2018,08,08,00,46,18.10
2018,08,08,00,47,18.10
2018,08,08,00,48,18.10
2018,08,08,00,49,18.10
2018,08,08,00,50,18.10
2018,08,08,00,51,18.10
2018,08,08,00,52,18.10
2018,08,08,00,53,18.10
2018,08,08,00,54,18.10
2018,08,08,00,55,18.10
2018,08,08,00,56,18.10
2018,08,08,00,57,18.10
2018,08,08,00,58,18.10
2018,08,08,00,59,18.10
2018,08,08,01,00,18.10
2018,08,08,01,01,18.10
2018,08,08,01,02,18.20
2018,08,08,01,03,18.10
2018,08,08,01,04,18.10
2018,08,08,01,05,18.10
2018,08,08,01,06,18.10
2018,08,08,01,07,18.10
2018,08,08,01,08,18.10
2018,08,08,01,09,18.10
2018,08,08,01,10,18.10
2018,08,08,01,11,18.10
2018,08,08,01,12,18.10
2018,08,08,01,13,18.10
2018,08,08,01,14,18.10
2018,08,08,01,15,18.10
2018,08,08,01,16,18.10
2018,08,08,01,17,18.10
2018,08,08,01,18,18.10
2018,08,08,01,19,18.10
2018,08,08,01,20,18.10
2018,08,08,01,21,18.10
2018,08,08,01,22,18.10
2018,08,08,01,23,18.10
2018,08,08,01,24,18.10
2018,08,08,01,25,18.10
2018,08,08,01,26,18.10
2018,08,08,01,27,18.10
2018,08,08,01,28,18.10
2018,08,08,01,29,18.10
2018,08,08,01,30,18.00
2018,08,08,01,31,18.10
2018,08,08,01,32,18.10
2018,08,08,01,33,18.10
2018,08,08,01,34,18.10
2018,08,08,01,35,18.10
2018,08,08,01,36,18.10
2018,08,08,01,37,18.10
2018,08,08,01,38,18.00
2018,08,08,01,39,18.00
2018,08,08,01,40,18.00
2018,08,08,01,41,18.00
2018,08,08,01,42,18.00
2018,08,08,01,43,18.00
2018,08,08,01,44,18.00
2018,08,08,01,45,18.00
2018,08,08,01,46,18.00
2018,08,08,01,47,17.90
2018,08,08,01,48,17.90
2018,08,08,01,49,17.90
2018,08,08,01,50,17.90
2018,08,08,01,51,17.90
2018,08,08,01,52,17.90
2018,08,08,01,53,17.90
2018,08,08,01,54,17.80
2018,08,08,01,55,17.80
2018,08,08,01,56,17.80
2018,08,08,01,57,17.80
2018,08,08,01,58,17.80
2018,08,08,01,59,17.80
2018,08,08,02,00,17.80
2018,08,08,02,01,17.80
2018,08,08,02,02,17.80
2018,08,08,02,03,17.80
2018,08,08,02,04,17.80
2018,08,08,02,05,17.80
2018,08,08,02,06,17.80
2018,08,08,02,07,17.80
2018,08,08,02,08,17.70
2018,08,08,02,09,17.70
2018,08,08,02,10,17.70
2018,08,08,02,11,17.70
2018,08,08,02,12,17.60
2018,08,08,02,13,17.60
2018,08,08,02,14,17.60
2018,08,08,02,15,17.60
2018,08,08,02,16,17.60
2018,08,08,02,17,17.60
2018,08,08,02,18,17.50
2018,08,08,02,19,17.50
2018,08,08,02,20,17.50
2018,08,08,02,21,17.50
2018,08,08,02,22,17.50
2018,08,08,02,23,17.50
2018,08,08,02,24,17.50
2018,08,08,02,25,17.40
2018,08,08,02,26,17.40
2018,08,08,02,27,17.40
2018,08,08,02,28,17.40
2018,08,08,02,29,17.40
2018,08,08,02,30,17.40
2018,08,08,02,31,17.40
2018,08,08,02,32,17.40
2018,08,08,02,33,17.30
2018,08,08,02,34,17.30
2018,08,08,02,35,17.30
2018,08,08,02,36,17.30
2018,08,08,02,37,17.30
2018,08,08,02,38,17.30
2018,08,08,02,39,17.30
2018,08,08,02,40,17.30
2018,08,08,02,41,17.30
2018,08,08,02,42,17.30
2018,08,08,02,43,17.30
2018,08,08,02,44,17.30
2018,08,08,02,45,17.30
2018,08,08,02,46,17.30
2018,08,08,02,47,17.30
2018,08,08,02,48,17.30
2018,08,08,02,49,17.30
2018,08,08,02,50,17.20
2018,08,08,02,51,17.20
2018,08,08,02,52,17.20
2018,08,08,02,53,17.20
2018,08,08,02,54,17.20
2018,08,08,02,55,17.20
2018,08,08,02,56,17.20
2018,08,08,02,57,17.10
2018,08,08,02,58,17.10
2018,08,08,02,59,17.10
2018,08,08,03,00,17.10
2018,08,08,03,01,17.10
2018,08,08,03,02,17.10
2018,08,08,03,03,17.10
2018,08,08,03,04,17.10
2018,08,08,03,05,17.00
2018,08,08,03,06,17.00
2018,08,08,03,07,17.00
2018,08,08,03,08,17.00
2018,08,08,03,09,17.00
2018,08,08,03,10,17.00
2018,08,08,03,11,17.00
2018,08,08,03,12,17.00
2018,08,08,03,13,17.00
2018,08,08,03,14,17.00
2018,08,08,03,15,17.00
2018,08,08,03,16,17.00
2018,08,08,03,17,17.10
2018,08,08,03,18,17.10
2018,08,08,03,19,17.10
2018,08,08,03,20,17.20
2018,08,08,03,21,17.20
2018,08,08,03,22,17.20
2018,08,08,03,23,17.20
2018,08,08,03,24,17.30
2018,08,08,03,25,17.30
2018,08,08,03,26,17.30
2018,08,08,03,27,17.30
2018,08,08,03,28,17.30
2018,08,08,03,29,17.30
2018,08,08,03,30,17.30
2018,08,08,03,31,17.40
2018,08,08,03,32,17.40
2018,08,08,03,33,17.40
2018,08,08,03,34,17.40
2018,08,08,03,35,17.40
2018,08,08,03,36,17.40
2018,08,08,03,37,17.50
2018,08,08,03,38,17.50
2018,08,08,03,39,17.50
2018,08,08,03,40,17.50
2018,08,08,03,41,17.60
2018,08,08,03,42,17.60
2018,08,08,03,43,17.60
2018,08,08,03,44,17.60
2018,08,08,03,45,17.70
2018,08,08,03,46,17.70
2018,08,08,03,47,17.70
2018,08,08,03,48,17.70
2018,08,08,03,49,17.70
2018,08,08,03,50,17.70
2018,08,08,03,51,17.70
2018,08,08,03,52,17.80
2018,08,08,03,53,17.80
2018,08,08,03,54,17.80
2018,08,08,03,55,17.90
2018,08,08,03,56,17.90
2018,08,08,03,57,17.90
2018,08,08,03,58,17.90
2018,08,08,03,59,17.90
2018,08,08,04,00,17.90
2018,08,08,04,01,17.90
2018,08,08,04,02,17.90
2018,08,08,04,03,17.80
2018,08,08,04,04,17.80
2018,08,08,04,05,17.80
2018,08,08,04,06,17.80
2018,08,08,04,07,17.80
2018,08,08,04,08,17.80
2018,08,08,04,09,17.80
2018,08,08,04,10,17.80
2018,08,08,04,11,17.80
2018,08,08,04,12,17.80
2018,08,08,04,13,17.80
2018,08,08,04,14,17.80
2018,08,08,04,15,17.80
2018,08,08,04,16,17.70
2018,08,08,04,17,17.70
2018,08,08,04,18,17.70
2018,08,08,04,19,17.70
2018,08,08,04,20,17.70
2018,08,08,04,21,17.70
2018,08,08,04,22,17.70
2018,08,08,04,23,17.70
2018,08,08,04,24,17.70
2018,08,08,04,25,17.70
2018,08,08,04,26,17.70
2018,08,08,04,27,17.70
2018,08,08,04,28,17.70
2018,08,08,04,29,17.70
2018,08,08,04,30,17.70
2018,08,08,04,31,17.70
2018,08,08,04,32,17.70
2018,08,08,04,33,17.70
2018,08,08,04,34,17.70
2018,08,08,04,35,17.70
2018,08,08,04,36,17.70
2018,08,08,04,37,17.70
2018,08,08,04,38,17.70
2018,08,08,04,39,17.70
2018,08,08,04,40,17.70
2018,08,08,04,41,17.70
2018,08,08,04,42,17.70
2018,08,08,04,43,17.70
2018,08,08,04,44,17.70
2018,08,08,04,45,17.70
2018,08,08,04,46,17.70
2018,08,08,04,47,17.60
2018,08,08,04,48,17.60
2018,08,08,04,49,17.60
2018,08,08,04,50,17.60
2018,08,08,04,51,17.60
2018,08,08,04,52,17.60
2018,08,08,04,53,17.70
2018,08,08,04,54,17.70
2018,08,08,04,55,17.70
2018,08,08,04,56,17.70
2018,08,08,04,57,17.70
2018,08,08,04,58,17.70
2018,08,08,04,59,17.70
2018,08,08,05,00,17.70
2018,08,08,05,01,17.70
2018,08,08,05,02,17.80
2018,08,08,05,03,17.80
2018,08,08,05,04,17.80
2018,08,08,05,05,17.80
2018,08,08,05,06,17.80
2018,08,08,05,07,17.80
2018,08,08,05,08,17.80
2018,08,08,05,09,17.80
2018,08,08,05,10,17.80
2018,08,08,05,11,17.80
2018,08,08,05,12,17.80
2018,08,08,05,13,17.80
2018,08,08,05,14,17.80
2018,08,08,05,15,17.80
2018,08,08,05,16,17.80
2018,08,08,05,17,17.80
2018,08,08,05,18,17.80
2018,08,08,05,19,17.70
2018,08,08,05,20,17.70
2018,08,08,05,21,17.70
2018,08,08,05,22,17.70
2018,08,08,05,23,17.70
2018,08,08,05,24,17.70
2018,08,08,05,25,17.70
2018,08,08,05,26,17.70
2018,08,08,05,27,17.70
2018,08,08,05,28,17.70
2018,08,08,05,29,17.60
2018,08,08,05,30,17.60
2018,08,08,05,31,17.60
2018,08,08,05,32,17.60
2018,08,08,05,33,17.60
2018,08,08,05,34,17.60
2018,08,08,05,35,17.60
2018,08,08,05,36,17.60
2018,08,08,05,37,17.60
2018,08,08,05,38,17.60
2018,08,08,05,39,17.60
2018,08,08,05,40,17.60
2018,08,08,05,41,17.60
2018,08,08,05,42,17.50
2018,08,08,05,43,17.50
2018,08,08,05,44,17.50
2018,08,08,05,45,17.50
2018,08,08,05,46,17.50
2018,08,08,05,47,17.50
2018,08,08,05,48,17.50
2018,08,08,05,49,17.50
2018,08,08,05,50,17.50
2018,08,08,05,51,17.40
2018,08,08,05,52,17.40
2018,08,08,05,53,17.40
2018,08,08,05,54,17.40
2018,08,08,05,55,17.40
2018,08,08,05,56,17.40
2018,08,08,05,57,17.40
2018,08,08,05,58,17.40
2018,08,08,05,59,17.40
2018,08,08,06,00,17.40
2018,08,08,06,01,17.40
2018,08,08,06,02,17.40
2018,08,08,06,03,17.40
2018,08,08,06,04,17.40
2018,08,08,06,05,17.40
2018,08,08,06,06,17.40
2018,08,08,06,07,17.40
2018,08,08,06,08,17.30
2018,08,08,06,09,17.30
2018,08,08,06,10,17.40
2018,08,08,06,11,17.30
2018,08,08,06,12,17.30
2018,08,08,06,13,17.30
2018,08,08,06,14,17.40
2018,08,08,06,15,17.40
2018,08,08,06,16,17.40
2018,08,08,06,17,17.40
2018,08,08,06,18,17.40
2018,08,08,06,19,17.40
2018,08,08,06,20,17.40
2018,08,08,06,21,17.40
2018,08,08,06,22,17.50
2018,08,08,06,23,17.50
2018,08,08,06,24,17.50
2018,08,08,06,25,17.60
2018,08,08,06,26,17.60
2018,08,08,06,27,17.70
2018,08,08,06,28,17.70
2018,08,08,06,29,17.70
2018,08,08,06,30,17.80
2018,08,08,06,31,17.80
2018,08,08,06,32,17.80
2018,08,08,06,33,17.90
2018,08,08,06,34,17.90
2018,08,08,06,35,17.90
2018,08,08,06,36,18.00
2018,08,08,06,37,18.00
2018,08,08,06,38,18.00
2018,08,08,06,39,18.00
2018,08,08,06,40,18.00
2018,08,08,06,41,18.10
2018,08,08,06,42,18.10
2018,08,08,06,43,18.10
2018,08,08,06,44,18.10
2018,08,08,06,45,18.10
2018,08,08,06,46,18.10
2018,08,08,06,47,18.10
2018,08,08,06,48,18.10
2018,08,08,06,49,18.20
2018,08,08,06,50,18.20
2018,08,08,06,51,18.20
2018,08,08,06,52,18.20
2018,08,08,06,53,18.20
2018,08,08,06,54,18.20
2018,08,08,06,55,18.20
2018,08,08,06,56,18.20
2018,08,08,06,57,18.20
2018,08,08,06,58,18.20
2018,08,08,06,59,18.20
2018,08,08,07,00,18.20
2018,08,08,07,01,18.20
2018,08,08,07,02,18.20
2018,08,08,07,03,18.30
2018,08,08,07,04,18.30
2018,08,08,07,05,18.40
2018,08,08,07,06,18.50
2018,08,08,07,07,18.70
2018,08,08,07,08,18.80
2018,08,08,07,09,18.80
2018,08,08,07,10,18.90
2018,08,08,07,11,18.90
2018,08,08,07,12,19.00
2018,08,08,07,13,19.00
2018,08,08,07,14,19.00
2018,08,08,07,15,19.00
2018,08,08,07,16,19.10
2018,08,08,07,17,19.10
2018,08,08,07,18,19.10
2018,08,08,07,19,19.10
2018,08,08,07,20,19.10
2018,08,08,07,21,19.10
2018,08,08,07,22,19.10
2018,08,08,07,23,19.10
2018,08,08,07,24,19.10
2018,08,08,07,25,19.10
2018,08,08,07,26,19.20
2018,08,08,07,27,19.20
2018,08,08,07,28,19.30
2018,08,08,07,29,19.30
2018,08,08,07,30,19.30
2018,08,08,07,31,19.40
2018,08,08,07,32,19.40
2018,08,08,07,33,19.40
2018,08,08,07,34,19.50
2018,08,08,07,35,19.60
2018,08,08,07,36,19.80
2018,08,08,07,37,20.00
2018,08,08,07,38,20.10
2018,08,08,07,39,20.20
2018,08,08,07,40,20.20
2018,08,08,07,41,20.30
2018,08,08,07,42,20.40
2018,08,08,07,43,20.40
2018,08,08,07,44,20.50
2018,08,08,07,45,20.60
2018,08,08,07,46,20.60
2018,08,08,07,47,20.70
2018,08,08,07,48,20.70
2018,08,08,07,49,20.80
2018,08,08,07,50,20.80
2018,08,08,07,51,20.90
2018,08,08,07,52,21.00
2018,08,08,07,53,21.00
2018,08,08,07,54,21.10
2018,08,08,07,55,21.20
2018,08,08,07,56,21.30
2018,08,08,07,57,21.30
2018,08,08,07,58,21.30
2018,08,08,07,59,21.40
2018,08,08,08,00,21.40
2018,08,08,08,01,21.50
2018,08,08,08,02,21.60
2018,08,08,08,03,21.60
2018,08,08,08,04,21.70
2018,08,08,08,05,21.70
2018,08,08,08,06,21.80
2018,08,08,08,07,21.80
2018,08,08,08,08,21.90
2018,08,08,08,09,21.90
2018,08,08,08,10,22.00
2018,08,08,08,11,22.00
2018,08,08,08,12,22.10
2018,08,08,08,13,22.10
2018,08,08,08,14,22.10
2018,08,08,08,15,22.10
2018,08,08,08,16,22.20
2018,08,08,08,17,22.20
2018,08,08,08,18,22.20
2018,08,08,08,19,22.20
2018,08,08,08,20,22.20
2018,08,08,08,21,22.20
2018,08,08,08,22,22.20
2018,08,08,08,23,22.20
2018,08,08,08,24,22.10
2018,08,08,08,25,22.10
2018,08,08,08,26,22.10
2018,08,08,08,27,22.10
2018,08,08,08,28,22.00
2018,08,08,08,29,22.00
2018,08,08,08,30,22.00
2018,08,08,08,31,21.90
2018,08,08,08,32,21.90
2018,08,08,08,33,21.80
2018,08,08,08,34,21.80
2018,08,08,08,35,21.80
2018,08,08,08,36,21.80
2018,08,08,08,37,21.80
2018,08,08,08,38,21.80
2018,08,08,08,39,21.80
2018,08,08,08,40,21.80
2018,08,08,08,41,21.90
2018,08,08,08,42,21.90
2018,08,08,08,43,22.00
2018,08,08,08,44,22.10
2018,08,08,08,45,22.10
2018,08,08,08,46,22.20
2018,08,08,08,47,22.30
2018,08,08,08,48,22.40
2018,08,08,08,49,22.40
2018,08,08,08,50,22.50
2018,08,08,08,51,22.60
2018,08,08,08,52,22.70
2018,08,08,08,53,22.80
2018,08,08,08,54,22.80
2018,08,08,08,55,22.90
2018,08,08,08,56,23.00
2018,08,08,08,57,23.10
2018,08,08,08,58,23.20
2018,08,08,08,59,23.20
2018,08,08,09,00,23.30
2018,08,08,09,01,23.40
2018,08,08,09,02,23.40
2018,08,08,09,03,23.50
2018,08,08,09,04,23.60
2018,08,08,09,05,23.70
2018,08,08,09,06,23.70
2018,08,08,09,07,23.80
2018,08,08,09,08,23.90
2018,08,08,09,09,23.90
2018,08,08,09,10,24.00
2018,08,08,09,11,24.10
2018,08,08,09,12,24.20
2018,08,08,09,13,24.20
2018,08,08,09,14,24.30
2018,08,08,09,15,24.30
2018,08,08,09,16,24.40
2018,08,08,09,17,24.40
2018,08,08,09,18,24.50
2018,08,08,09,19,24.60
2018,08,08,09,20,24.60
2018,08,08,09,21,24.60
2018,08,08,09,22,24.70
2018,08,08,09,23,24.70
2018,08,08,09,24,24.70
2018,08,08,09,25,24.70
2018,08,08,09,26,24.80
2018,08,08,09,27,24.80
2018,08,08,09,28,24.80
2018,08,08,09,29,24.80
2018,08,08,09,30,24.90
2018,08,08,09,31,24.90
2018,08,08,09,32,24.90
2018,08,08,09,33,24.90
2018,08,08,09,34,24.90
2018,08,08,09,35,24.90
2018,08,08,09,36,24.90
2018,08,08,09,37,24.90
2018,08,08,09,38,24.90
2018,08,08,09,39,24.90
2018,08,08,09,40,25.00
2018,08,08,09,41,25.00
2018,08,08,09,42,25.00
2018,08,08,09,43,25.00
2018,08,08,09,44,25.00
2018,08,08,09,45,25.00
2018,08,08,09,46,25.10
2018,08,08,09,47,25.10
2018,08,08,09,48,25.10
2018,08,08,09,49,25.10
2018,08,08,09,50,25.10
2018,08,08,09,51,25.10
2018,08,08,09,52,25.10
2018,08,08,09,53,25.10
2018,08,08,09,54,25.10
2018,08,08,09,55,25.10
2018,08,08,09,56,25.20
2018,08,08,09,57,25.20
2018,08,08,09,58,25.30
2018,08,08,09,59,25.30
2018,08,08,10,00,25.40
2018,08,08,10,01,25.40
2018,08,08,10,02,25.40
2018,08,08,10,03,25.50
2018,08,08,10,04,25.50
2018,08,08,10,05,25.40
2018,08,08,10,06,25.40
2018,08,08,10,07,25.30
2018,08,08,10,08,25.30
2018,08,08,10,09,25.30
2018,08,08,10,10,25.20
2018,08,08,10,11,25.20
2018,08,08,10,12,25.20
2018,08,08,10,13,25.20
2018,08,08,10,14,25.20
2018,08,08,10,15,25.30
2018,08,08,10,16,25.30
2018,08,08,10,17,25.30
2018,08,08,10,18,25.20
2018,08,08,10,19,25.20
2018,08,08,10,20,25.30
2018,08,08,10,21,25.30
2018,08,08,10,22,25.30
2018,08,08,10,23,25.20
2018,08,08,10,24,25.10
2018,08,08,10,25,25.00
2018,08,08,10,26,24.80
2018,08,08,10,27,24.70
2018,08,08,10,28,24.60
2018,08,08,10,29,24.50
2018,08,08,10,30,24.50
2018,08,08,10,31,24.40
2018,08,08,10,32,24.40
2018,08,08,10,33,24.40
2018,08,08,10,34,24.40
2018,08,08,10,35,24.40
2018,08,08,10,36,24.50
2018,08,08,10,37,24.50
2018,08,08,10,38,24.50
2018,08,08,10,39,24.50
2018,08,08,10,40,24.60
2018,08,08,10,41,24.60
2018,08,08,10,42,24.50
2018,08,08,10,43,24.40
2018,08,08,10,44,24.30
2018,08,08,10,45,24.20
2018,08,08,10,46,24.10
2018,08,08,10,47,24.00
2018,08,08,10,48,24.00
2018,08,08,10,49,24.00
2018,08,08,10,50,24.00
2018,08,08,10,51,24.10
2018,08,08,10,52,24.10
2018,08,08,10,53,24.20
2018,08,08,10,54,24.30
2018,08,08,10,55,24.30
2018,08,08,10,56,24.40
2018,08,08,10,57,24.50
2018,08,08,10,58,24.60
2018,08,08,10,59,24.60
2018,08,08,11,00,24.60
2018,08,08,11,01,24.70
2018,08,08,11,02,24.70
2018,08,08,11,03,24.70
2018,08,08,11,04,24.70
2018,08,08,11,05,24.60
2018,08,08,11,06,24.50
2018,08,08,11,07,24.50
2018,08,08,11,08,24.40
2018,08,08,11,09,24.40
2018,08,08,11,10,24.30
2018,08,08,11,11,24.40
2018,08,08,11,12,24.30
2018,08,08,11,13,24.20
2018,08,08,11,14,24.20
2018,08,08,11,15,24.20
2018,08,08,11,16,24.20
2018,08,08,11,17,24.20
2018,08,08,11,18,24.10
2018,08,08,11,19,24.10
2018,08,08,11,20,24.10
2018,08,08,11,21,24.20
2018,08,08,11,22,24.20
2018,08,08,11,23,24.30
2018,08,08,11,24,24.40
2018,08,08,11,25,24.40
2018,08,08,11,26,24.40
2018,08,08,11,27,24.40
2018,08,08,11,28,24.40
2018,08,08,11,29,24.40
2018,08,08,11,30,24.40
2018,08,08,11,31,24.40
2018,08,08,11,32,24.40
2018,08,08,11,33,24.40
2018,08,08,11,34,24.40
2018,08,08,11,35,24.30
2018,08,08,11,36,24.30
2018,08,08,11,37,24.30
2018,08,08,11,38,24.30
2018,08,08,11,39,24.30
2018,08,08,11,40,24.30
2018,08,08,11,41,24.30
2018,08,08,11,42,24.30
2018,08,08,11,43,24.30
2018,08,08,11,44,24.30
2018,08,08,11,45,24.40
2018,08,08,11,46,24.30
2018,08,08,11,47,24.40
2018,08,08,11,48,24.40
2018,08,08,11,49,24.50
2018,08,08,11,50,24.50
2018,08,08,11,51,24.60
2018,08,08,11,52,24.70
2018,08,08,11,53,24.80
2018,08,08,11,54,24.90
2018,08,08,11,55,25.00
2018,08,08,11,56,25.10
2018,08,08,11,57,25.20
2018,08,08,11,58,25.20
2018,08,08,11,59,25.30
2018,08,08,12,00,25.30
2018,08,08,12,01,25.30
2018,08,08,12,02,25.40
2018,08,08,12,03,25.40
2018,08,08,12,04,25.40
2018,08,08,12,05,25.40
2018,08,08,12,06,25.40
2018,08,08,12,07,25.30
2018,08,08,12,08,25.30
2018,08,08,12,09,25.30
2018,08,08,12,10,25.30
2018,08,08,12,11,25.30
2018,08,08,12,12,25.20
2018,08,08,12,13,25.20
2018,08,08,12,14,25.20
2018,08,08,12,15,25.20
2018,08,08,12,16,25.20
2018,08,08,12,17,25.20
2018,08,08,12,18,25.20
2018,08,08,12,19,25.20
2018,08,08,12,20,25.20
2018,08,08,12,21,25.20
2018,08,08,12,22,25.20
2018,08,08,12,23,25.10
2018,08,08,12,24,25.10
2018,08,08,12,25,25.00
2018,08,08,12,26,24.90
2018,08,08,12,27,24.90
2018,08,08,12,28,24.80
2018,08,08,12,29,24.80
2018,08,08,12,30,24.80
2018,08,08,12,31,24.80
2018,08,08,12,32,24.80
2018,08,08,12,33,24.90
2018,08,08,12,34,24.90
2018,08,08,12,35,24.90
2018,08,08,12,36,24.80
2018,08,08,12,37,24.80
2018,08,08,12,38,24.90
2018,08,08,12,39,24.90
2018,08,08,12,40,24.80
2018,08,08,12,41,24.80
2018,08,08,12,42,24.90
2018,08,08,12,43,24.90
2018,08,08,12,44,24.80
2018,08,08,12,45,24.80
2018,08,08,12,46,24.80
2018,08,08,12,47,24.90
2018,08,08,12,48,24.90
2018,08,08,12,49,25.00
2018,08,08,12,50,25.00
2018,08,08,12,51,25.10
2018,08,08,12,52,25.10
2018,08,08,12,53,25.10
2018,08,08,12,54,25.10
2018,08,08,12,55,25.10
2018,08,08,12,56,25.00
2018,08,08,12,57,25.00
2018,08,08,12,58,25.00
2018,08,08,12,59,25.00
2018,08,08,13,00,25.00
2018,08,08,13,01,25.10
2018,08,08,13,02,25.10
2018,08,08,13,03,25.10
2018,08,08,13,04,25.00
2018,08,08,13,05,25.00
2018,08,08,13,06,25.10
2018,08,08,13,07,25.00
2018,08,08,13,08,25.00
2018,08,08,13,09,24.90
2018,08,08,13,10,24.90
2018,08,08,13,11,24.90
2018,08,08,13,12,24.90
2018,08,08,13,13,25.00
2018,08,08,13,14,25.00
2018,08,08,13,15,25.10
2018,08,08,13,16,25.10
2018,08,08,13,17,25.20
2018,08,08,13,18,25.20
2018,08,08,13,19,25.30
2018,08,08,13,20,25.30
2018,08,08,13,21,25.40
2018,08,08,13,22,25.40
2018,08,08,13,23,25.40
2018,08,08,13,24,25.40
2018,08,08,13,25,25.40
2018,08,08,13,26,25.40
2018,08,08,13,27,25.40
2018,08,08,13,28,25.40
2018,08,08,13,29,25.50
2018,08,08,13,30,25.50
2018,08,08,13,31,25.60
2018,08,08,13,32,25.60
2018,08,08,13,33,25.70
2018,08,08,13,34,25.70
2018,08,08,13,35,25.70
2018,08,08,13,36,25.80
2018,08,08,13,37,25.80
2018,08,08,13,38,25.90
2018,08,08,13,39,25.90
2018,08,08,13,40,26.00
2018,08,08,13,41,26.00
2018,08,08,13,42,26.00
2018,08,08,13,43,25.90
2018,08,08,13,44,26.00
2018,08,08,13,45,26.00
2018,08,08,13,46,26.10
2018,08,08,13,47,26.10
2018,08,08,13,48,26.10
2018,08,08,13,49,26.20
2018,08,08,13,50,26.20
2018,08,08,13,51,26.20
2018,08,08,13,52,26.20
2018,08,08,13,53,26.20
2018,08,08,13,54,26.20
2018,08,08,13,55,26.20
2018,08,08,13,56,26.20
2018,08,08,13,57,26.30
2018,08,08,13,58,26.20
2018,08,08,13,59,26.30
2018,08,08,14,00,26.30
2018,08,08,14,01,26.30
2018,08,08,14,02,26.30
2018,08,08,14,03,26.40
2018,08,08,14,04,26.40
2018,08,08,14,05,26.40
2018,08,08,14,06,26.40
2018,08,08,14,07,26.40
2018,08,08,14,08,26.50
2018,08,08,14,09,26.60
2018,08,08,14,10,26.60
2018,08,08,14,11,26.60
2018,08,08,14,12,26.60
2018,08,08,14,13,26.70
2018,08,08,14,14,26.70
2018,08,08,14,15,26.70
2018,08,08,14,16,26.60
2018,08,08,14,17,26.50
2018,08,08,14,18,26.40
2018,08,08,14,19,26.40
2018,08,08,14,20,26.30
2018,08,08,14,21,26.20
2018,08,08,14,22,26.10
2018,08,08,14,23,26.00
2018,08,08,14,24,26.00
2018,08,08,14,25,26.00
2018,08,08,14,26,26.00
2018,08,08,14,27,26.10
2018,08,08,14,28,26.10
2018,08,08,14,29,26.20
2018,08,08,14,30,26.20
2018,08,08,14,31,26.30
2018,08,08,14,32,26.40
2018,08,08,14,33,26.40
2018,08,08,14,34,26.50
2018,08,08,14,35,26.60
2018,08,08,14,36,26.60
2018,08,08,14,37,26.70
2018,08,08,14,38,26.80
2018,08,08,14,39,26.80
2018,08,08,14,40,26.90
2018,08,08,14,41,26.90
2018,08,08,14,42,27.00
2018,08,08,14,43,27.10
2018,08,08,14,44,27.10
2018,08,08,14,45,27.20
2018,08,08,14,46,27.20
2018,08,08,14,47,27.30
2018,08,08,14,48,27.40
2018,08,08,14,49,27.50
2018,08,08,14,50,27.70
2018,08,08,14,51,27.80
2018,08,08,14,52,27.80
2018,08,08,14,53,27.90
2018,08,08,14,54,27.90
2018,08,08,14,55,27.90
2018,08,08,14,56,28.00
2018,08,08,14,57,28.10
2018,08,08,14,58,28.10
2018,08,08,14,59,28.20
2018,08,08,15,00,28.30
2018,08,08,15,01,28.30
2018,08,08,15,02,28.40
2018,08,08,15,03,28.40
2018,08,08,15,04,28.40
2018,08,08,15,05,28.40
2018,08,08,15,06,28.40
2018,08,08,15,07,28.40
2018,08,08,15,08,28.40
2018,08,08,15,09,28.50
2018,08,08,15,10,28.50
2018,08,08,15,11,28.60
2018,08,08,15,12,28.70
2018,08,08,15,13,28.70
2018,08,08,15,14,28.80
2018,08,08,15,15,28.80
2018,08,08,15,16,28.80
2018,08,08,15,17,28.80
2018,08,08,15,18,28.90
2018,08,08,15,19,28.90
2018,08,08,15,20,28.80
2018,08,08,15,21,28.90
2018,08,08,15,22,28.80
2018,08,08,15,23,28.80
2018,08,08,15,24,28.80
2018,08,08,15,25,28.80
2018,08,08,15,26,28.80
2018,08,08,15,27,28.80
2018,08,08,15,28,28.80
2018,08,08,15,29,28.80
2018,08,08,15,30,28.80
2018,08,08,15,31,28.90
2018,08,08,15,32,28.90
2018,08,08,15,33,28.90
2018,08,08,15,34,28.90
2018,08,08,15,35,28.90
2018,08,08,15,36,28.80
2018,08,08,15,37,28.80
2018,08,08,15,38,28.70
2018,08,08,15,39,28.60
2018,08,08,15,40,28.50
2018,08,08,15,41,28.50
2018,08,08,15,42,28.40
2018,08,08,15,43,28.40
2018,08,08,15,44,28.40
2018,08,08,15,45,28.40
2018,08,08,15,46,28.40
2018,08,08,15,47,28.40
2018,08,08,15,48,28.40
2018,08,08,15,49,28.50
2018,08,08,15,50,28.50
2018,08,08,15,51,28.60
2018,08,08,15,52,28.70
2018,08,08,15,53,28.80
2018,08,08,15,54,28.90
2018,08,08,15,55,29.00
2018,08,08,15,56,29.10
2018,08,08,15,57,29.10
2018,08,08,15,58,29.20
2018,08,08,15,59,29.20
2018,08,08,16,00,29.10
2018,08,08,16,01,29.00
2018,08,08,16,02,29.00
2018,08,08,16,03,28.90
2018,08,08,16,04,28.80
2018,08,08,16,05,28.80
2018,08,08,16,06,28.70
2018,08,08,16,07,28.70
2018,08,08,16,08,28.70
2018,08,08,16,09,28.70
2018,08,08,16,10,28.70
2018,08,08,16,11,28.70
2018,08,08,16,12,28.70
2018,08,08,16,13,28.70
2018,08,08,16,14,28.80
2018,08,08,16,15,28.80
2018,08,08,16,16,28.80
2018,08,08,16,17,28.80
2018,08,08,16,18,28.90
2018,08,08,16,19,28.90
2018,08,08,16,20,29.00
2018,08,08,16,21,29.00
2018,08,08,16,22,29.10
2018,08,08,16,23,29.10
2018,08,08,16,24,29.10
2018,08,08,16,25,29.00
2018,08,08,16,26,29.10
2018,08,08,16,27,29.10
2018,08,08,16,28,29.10
2018,08,08,16,29,29.10
2018,08,08,16,30,29.20
2018,08,08,16,31,29.20
2018,08,08,16,32,29.30
2018,08,08,16,33,29.30
2018,08,08,16,34,29.40
2018,08,08,16,35,29.40
2018,08,08,16,36,29.50
2018,08,08,16,37,29.50
2018,08,08,16,38,29.60
2018,08,08,16,39,29.60
2018,08,08,16,40,29.70
2018,08,08,16,41,29.70
2018,08,08,16,42,29.80
2018,08,08,16,43,29.80
2018,08,08,16,44,29.80
2018,08,08,16,45,29.90
2018,08,08,16,46,29.80
2018,08,08,16,47,29.80
2018,08,08,16,48,29.70
2018,08,08,16,49,29.70
2018,08,08,16,50,29.70
2018,08,08,16,51,29.70
2018,08,08,16,52,29.70
2018,08,08,16,53,29.70
2018,08,08,16,54,29.70
2018,08,08,16,55,29.70
2018,08,08,16,56,29.70
2018,08,08,16,57,29.80
2018,08,08,16,58,29.80
2018,08,08,16,59,29.80
2018,08,08,17,00,29.80
2018,08,08,17,01,29.80
2018,08,08,17,02,29.80
2018,08,08,17,03,29.80
2018,08,08,17,04,29.90
2018,08,08,17,05,29.90
2018,08,08,17,06,30.00
2018,08,08,17,07,30.00
2018,08,08,17,08,30.10
2018,08,08,17,09,30.10
2018,08,08,17,10,30.10
2018,08,08,17,11,30.10
2018,08,08,17,12,30.10
2018,08,08,17,13,30.10
2018,08,08,17,14,30.10
2018,08,08,17,15,30.10
2018,08,08,17,16,30.20
2018,08,08,17,17,30.30
2018,08,08,17,18,30.30
2018,08,08,17,19,30.40